FW4342 Weather Reports


Display with metric or nautical units.
time (UTC)temp
F
wind
direction
speed
MPH
gust
MPH
rain 1hr
in
rain 24hr
in
rain mn
in
humidity
%
barometer
mb
20260505184943 56 314 5.0 13.0 0.00 0.00 0.00 41 1007.1
20260505184246 56 322 5.0 13.0 0.00 0.00 0.00 40 1007.1
20260505183704 56 316 5.0 12.0 0.00 0.00 0.00 44 1007.0
20260505181941 56 313 5.0 14.0 0.00 0.00 0.00 39 1007.0
20260505181458 55 286 5.0 10.0 0.00 0.00 0.00 42 1006.9
20260505181230 55 285 6.0 12.0 0.00 0.00 0.00 39 1006.8
20260505180958 55 335 5.0 12.0 0.00 0.00 0.00 40 1006.8
20260505180042 55 317 5.0 11.0 0.00 0.00 0.00 44 1006.8
20260505175352 54 309 5.0 11.0 0.00 0.00 0.00 46 1006.8
20260505173908 52 309 0.0 2.0 0.00 0.00 0.00 75 1002.6
20260505173718 54 310 6.0 11.0 0.00 0.00 0.00 44 1007.0
20260505173450 54 302 5.0 13.0 0.00 0.00 0.00 41 1007.0
20260505172805 55 332 4.0 13.0 0.00 0.00 0.00 42 1006.9
20260505172325 55 320 4.0 9.0 0.00 0.00 0.00 45 1006.9
20260505171837 54 322 5.0 11.0 0.00 0.00 0.00 45 1007.0
20260505171613 55 311 5.0 11.0 0.00 0.00 0.00 42 1007.0
20260505170157 55 314 6.0 12.0 0.00 0.00 0.00 42 1006.6
20260505165810 55 327 5.0 10.0 0.00 0.00 0.00 42 1006.7
20260505165100 55 325 4.0 11.0 0.00 0.00 0.00 47 1006.5
20260505164137 55 322 5.0 11.0 0.00 0.00 0.00 45 1006.3
20260505163739 52 309 0.0 2.0 0.00 0.00 0.00 75 1002.7
20260505163622 55 315 5.0 11.0 0.00 0.00 0.00 44 1006.3
20260505163222 53 309 1.0 3.0 0.00 0.00 0.00 75 1002.9
20260505163041 55 315 6.0 12.0 0.00 0.00 0.00 45 1006.4
20260505162549 55 285 5.0 12.0 0.00 0.00 0.00 43 1006.5
20260505161838 55 312 5.0 10.0 0.00 0.00 0.00 46 1006.6
20260505161131 55 317 5.0 9.0 0.00 0.00 0.00 46 1006.7
20260505160631 55 310 5.0 10.0 0.00 0.00 0.00 46 1006.6
20260505160141 55 316 5.0 10.0 0.00 0.00 0.00 47 1006.7
20260505153327 53 315 5.0 14.0 0.00 0.00 0.00 44 1006.6
20260505152216 54 313 5.0 11.0 0.00 0.00 0.00 42 1006.7
20260505151748 54 317 5.0 10.0 0.00 0.00 0.00 46 1006.7
20260505151100 54 308 4.0 8.0 0.00 0.00 0.00 45 1006.8
20260505140223 51 317 4.0 10.0 0.00 0.00 0.00 55 1006.8
20260505124651 46 302 1.0 3.0 0.00 0.00 0.00 61 1006.4
20260505124016 46 302 1.0 3.0 0.00 0.00 0.00 60 1006.8
20260505123320 46 302 1.0 4.0 0.00 0.00 0.00 62 1007.1
20260505122405 46 311 2.0 5.0 0.00 0.00 0.00 63 1007.2
20260505122137 46 307 2.0 4.0 0.00 0.00 0.00 63 1006.5
20260505120959 46 307 2.0 4.0 0.00 0.00 0.00 63 1006.5
20260505120646 45 312 1.0 4.0 0.00 0.00 0.00 62 1006.6
20260505120152 45 321 2.0 4.0 0.00 0.00 0.00 62 1005.9
20260505115855 45 321 2.0 4.0 0.00 0.00 0.00 60 1006.3
20260505113217 45 321 1.0 2.0 0.00 0.00 0.00 61 1004.9
20260505112524 45 321 1.0 3.0 0.00 0.00 0.00 60 1004.8
20260505112101 56 309 0.0 2.0 0.00 0.00 0.00 67 1003.4
20260505112004 45 321 1.0 3.0 0.00 0.00 0.00 61 1004.9
20260505101836 46 327 1.0 2.0 0.00 0.00 0.00 62 1004.8
20260505100034 46 327 0.0 1.0 0.00 0.00 0.00 59 1004.6
20260505094757 58 309 0.0 0.0 0.00 0.00 0.00 62 1003.5
20260505094712 58 309 0.0 1.0 0.00 0.00 0.00 61 1003.5
20260505094658 59 309 0.0 1.0 0.00 0.00 0.00 61 1003.5
20260505094544 61 309 0.0 1.0 0.00 0.00 0.00 56 1003.3
20260505094440 46 327 1.0 3.0 0.00 0.00 0.00 60 1004.2
20260505094343 64 309 0.0 2.0 0.00 0.00 0.00 53 1003.1
20260505094337 65 309 2.0 4.0 0.00 0.00 0.00 51 1003.0
20260505094308 66 324 2.0 6.0 0.00 0.00 0.00 50 1002.9
20260505094302 66 34 1.0 4.0 0.00 0.00 0.00 50 1003.0
20260505094257 67 323 2.0 8.0 0.00 0.00 0.00 51 1002.9
20260505093625 46 327 2.0 4.0 0.00 0.00 0.00 59 1004.3
20260505092649 46 346 1.0 4.0 0.00 0.00 0.00 60 1005.1
20260505092013 46 317 1.0 4.0 0.00 0.00 0.00 59 1004.8
20260505091740 47 323 1.0 3.0 0.00 0.00 0.00 60 1004.8
20260505091033 47 323 1.0 3.0 0.00 0.00 0.00 60 1004.4
20260505090143 47 325 1.0 2.0 0.00 0.00 0.00 60 1004.0
20260505085858 48 325 1.0 3.0 0.00 0.00 0.00 60 1004.1
20260505085006 48 325 2.0 6.0 0.00 0.00 0.00 59 1003.6
20260505084315 49 315 2.0 7.0 0.00 0.00 0.00 58 1003.3
20260505084053 49 318 2.0 6.0 0.00 0.00 0.00 58 1003.3
20260505083623 49 327 2.0 8.0 0.00 0.00 0.00 58 1003.2
20260505083154 49 327 3.0 8.0 0.00 0.00 0.00 56 1003.1
20260505082936 49 327 3.0 9.0 0.00 0.00 0.00 56 1002.8
20260505082504 50 329 3.0 9.0 0.00 0.00 0.00 56 1003.0
20260505082243 50 303 2.0 5.0 0.00 0.00 0.00 58 1003.0
20260505081347 50 333 2.0 4.0 0.00 0.00 0.00 58 1002.6
20260505080916 51 319 1.0 2.0 0.00 0.00 0.00 58 1002.5
20260505074934 51 323 1.0 4.0 0.00 0.00 0.00 58 1002.0
20260505074459 51 323 2.0 5.0 0.00 0.00 0.00 58 1002.3
20260505073815 51 323 2.0 6.0 0.00 0.00 0.00 58 1002.2
20260505073551 52 321 2.0 6.0 0.00 0.00 0.00 58 1002.3
20260505073128 52 324 2.0 4.0 0.00 0.00 0.00 58 1002.0
20260505072450 52 323 2.0 6.0 0.00 0.00 0.00 57 1001.8
20260505070439 54 326 2.0 6.0 0.00 0.00 0.00 56 1001.8
20260505070205 54 327 3.0 6.0 0.00 0.00 0.00 55 1001.2
20260505065055 54 332 3.0 6.0 0.00 0.00 0.00 55 1001.2
20260505064638 55 329 3.0 6.0 0.00 0.00 0.00 53 1001.2
20260505064213 55 318 3.0 7.0 0.00 0.00 0.00 53 1001.1
20260505063746 56 131 3.0 7.0 0.00 0.00 0.00 53 1000.8
20260505063325 56 331 3.0 8.0 0.00 0.00 0.00 52 1000.8
20260505062854 56 322 3.0 8.0 0.00 0.00 0.00 51 1000.9
20260505062641 56 323 3.0 5.0 0.00 0.00 0.00 51 1000.7
20260505061754 57 321 3.0 6.0 0.00 0.00 0.00 50 1000.4
20260505053613 59 323 4.0 9.0 0.00 0.00 0.00 48 1000.4
20260505052937 59 316 4.0 9.0 0.00 0.00 0.00 47 1000.3
20260505052502 59 321 3.0 9.0 0.00 0.00 0.00 47 1000.1
20260505052025 59 313 3.0 8.0 0.00 0.00 0.00 46 1000.2
20260505041316 61 307 3.0 7.0 0.00 0.00 0.00 46 999.3
20260505041056 61 300 3.0 7.0 0.00 0.00 0.00 46 999.1
20260505040412 61 319 3.0 8.0 0.00 0.00 0.00 45 999.1
20260505035941 61 320 4.0 9.0 0.00 0.00 0.00 45 998.9
20260505035259 62 318 4.0 9.0 0.00 0.00 0.00 45 998.8
20260505034543 62 313 4.0 9.0 0.00 0.00 0.00 45 998.9
20260505033859 62 314 4.0 9.0 0.00 0.00 0.00 45 998.7
20260505032555 47 5 2.0 5.0 0.00 0.00 0.00 64 1010.3
20260505032432 62 317 4.0 9.0 0.00 0.00 0.00 46 998.9
20260505032137 63 317 4.0 9.0 0.00 0.00 0.00 46 998.9
20260505031038 47 232 2.0 10.0 0.00 0.00 0.00 64 1010.1
20260505030938 63 298 2.0 6.0 0.00 0.00 0.00 47 999.0
20260505030403 64 308 2.0 6.0 0.00 0.00 0.00 48 999.0
20260505030100 64 307 3.0 6.0 0.00 0.00 0.00 46 999.0
20260505025540 64 300 2.0 6.0 0.00 0.00 0.00 46 998.9
20260505025216 47 283 2.0 6.0 0.00 0.00 0.00 59 1010.9
20260505025122 47 288 2.0 8.0 0.00 0.00 0.00 60 1011.3
20260505025013 65 328 3.0 8.0 0.00 0.00 0.00 46 998.8
20260505024523 65 317 3.0 8.0 0.00 0.00 0.00 46 998.7
20260505024047 65 318 3.0 6.0 0.00 0.00 0.00 47 998.7
20260505023406 46 215 1.0 5.0 0.00 0.00 0.00 61 1011.3
20260505023356 66 313 3.0 7.0 0.00 0.00 0.00 47 998.6
20260505023130 66 308 4.0 11.0 0.00 0.00 0.00 46 998.4
20260505022857 66 314 4.0 11.0 0.00 0.00 0.00 45 998.4
20260505021058 67 315 3.0 8.0 0.00 0.00 0.00 49 997.6
20260505020429 46 246 1.0 6.0 0.00 0.00 0.00 61 1011.2
20260505020340 46 293 2.0 5.0 0.00 0.00 0.00 62 1011.3
20260505020336 68 306 3.0 6.0 0.00 0.00 0.00 50 997.4
20260505020107 68 302 2.0 6.0 0.00 0.00 0.00 48 997.3
20260505015839 68 313 2.0 4.0 0.00 0.00 0.00 51 997.2
20260505015618 69 313 2.0 4.0 0.00 0.00 0.00 50 997.1
20260505014943 69 313 2.0 4.0 0.00 0.00 0.00 50 996.9
20260505014514 69 313 2.0 4.0 0.00 0.00 0.00 49 996.8
20260505014256 69 313 2.0 4.0 0.00 0.00 0.00 50 996.8
20260505013629 69 311 2.0 5.0 0.00 0.00 0.00 50 996.6
20260505012256 70 319 2.0 6.0 0.00 0.00 0.00 51 996.4
20260505011824 70 319 2.0 6.0 0.00 0.00 0.00 52 996.2
20260505011353 71 317 1.0 4.0 0.00 0.00 0.00 51 995.7
20260505011112 71 316 2.0 4.0 0.00 0.00 0.00 50 995.3
20260505010007 71 316 2.0 4.0 0.00 0.00 0.00 49 995.1
20260505005515 72 316 1.0 3.0 0.00 0.00 0.00 49 995.0
20260505004603 73 316 1.0 3.0 0.00 0.00 0.00 47 994.9
20260505003939 46 297 2.0 5.0 0.00 0.00 0.00 62 1011.4
20260505003859 45 324 2.0 4.0 0.00 0.00 0.00 64 1011.4
20260505003327 73 316 1.0 4.0 0.00 0.00 0.00 45 994.8
20260505003053 74 316 2.0 4.0 0.00 0.00 0.00 44 994.8
20260505002609 74 323 2.0 4.0 0.00 0.00 0.00 44 994.5
20260505001910 74 323 1.0 4.0 0.00 0.00 0.00 43 994.4
20260505001428 74 319 2.0 4.0 0.00 0.00 0.00 43 994.3
20260505001112 44 252 1.0 4.0 0.00 0.00 0.00 65 1011.6
20260505001022 44 284 1.0 3.0 0.00 0.00 0.00 65 1011.8
20260505000850 75 322 2.0 4.0 0.00 0.00 0.00 43 994.3
20260505000617 75 322 2.0 4.0 0.00 0.00 0.00 41 994.4
20260504235914 75 322 2.0 4.0 0.00 0.00 0.00 41 994.4
20260504235433 75 323 2.0 5.0 0.00 0.00 0.00 42 994.5
20260504234949 75 330 2.0 8.0 0.00 0.00 0.00 40 994.5
20260504234725 74 289 3.0 8.0 0.00 0.00 0.00 40 994.6
20260504234459 74 101 4.0 11.0 0.00 0.00 0.00 42 994.8
20260504234029 74 220 5.0 11.0 0.00 0.00 0.00 40 994.7
20260504233534 74 317 4.0 11.0 0.00 0.00 0.00 41 994.8
20260504232633 74 320 7.0 19.0 0.00 0.00 0.00 42 994.5
20260504231925 74 304 9.0 19.0 0.00 0.00 0.00 41 994.7
20260504231650 75 313 10.0 23.0 0.00 0.00 0.00 38 995.1
20260504230952 76 315 9.0 23.0 0.00 0.00 0.00 36 995.3
20260504230436 77 300 5.0 13.0 0.00 0.00 0.00 36 995.0
20260504225954 77 316 5.0 12.0 0.00 0.00 0.00 38 994.9
20260504225640 44 271 1.0 6.0 0.00 0.00 0.00 65 1012.1
20260504225625 44 269 1.0 3.0 0.00 0.00 0.00 66 1012.4
20260504225428 77 285 5.0 12.0 0.00 0.00 0.00 37 994.8
20260504224929 77 319 6.0 13.0 0.00 0.00 0.00 37 994.9
20260504224657 78 306 6.0 13.0 0.00 0.00 0.00 36 995.0
20260504224204 78 319 6.0 15.0 0.00 0.00 0.00 36 995.0
20260504223940 78 323 5.0 15.0 0.00 0.00 0.00 37 995.0
20260504223255 78 313 5.0 15.0 0.00 0.00 0.00 36 995.1
20260504222813 78 315 6.0 15.0 0.00 0.00 0.00 35 995.1
20260504222544 79 292 6.0 12.0 0.00 0.00 0.00 34 995.1
20260504222324 80 304 6.0 16.0 0.00 0.00 0.00 33 995.2
20260504221826 80 5 6.0 16.0 0.00 0.00 0.00 33 995.1
20260504221146 80 311 6.0 15.0 0.00 0.00 0.00 34 995.2
20260504215939 80 315 7.0 15.0 0.00 0.00 0.00 34 995.2
20260504215723 80 309 7.0 15.0 0.00 0.00 0.00 34 995.2
20260504215501 80 319 7.0 15.0 0.00 0.00 0.00 33 995.3
20260504215027 80 324 8.0 16.0 0.00 0.00 0.00 33 995.4
20260504214753 80 234 7.0 16.0 0.00 0.00 0.00 31 995.5
20260504213650 80 321 6.0 15.0 0.00 0.00 0.00 35 995.7
20260504212741 80 311 7.0 17.0 0.00 0.00 0.00 33 995.6
20260504212047 80 296 6.0 16.0 0.00 0.00 0.00 32 995.6
20260504211827 80 300 6.0 15.0 0.00 0.00 0.00 33 995.7
20260504210657 80 319 6.0 14.0 0.00 0.00 0.00 33 995.8
20260504210209 80 309 6.0 14.0 0.00 0.00 0.00 32 995.7
20260504205932 80 304 6.0 17.0 0.00 0.00 0.00 31 995.6
20260504205704 79 280 7.0 19.0 0.00 0.00 0.00 32 995.7
20260504205239 79 315 7.0 19.0 0.00 0.00 0.00 31 995.8
20260504205015 79 305 6.0 14.0 0.00 0.00 0.00 34 996.0
20260504204533 79 285 7.0 20.0 0.00 0.00 0.00 33 995.8
20260504203424 79 287 7.0 16.0 0.00 0.00 0.00 32 995.9
20260504201609 79 244 7.0 18.0 0.00 0.00 0.00 31 996.1
20260504195308 78 237 6.0 14.0 0.00 0.00 0.00 31 996.6
20260504194806 78 326 6.0 14.0 0.00 0.00 0.00 31 996.6
20260504194533 78 313 5.0 13.0 0.00 0.00 0.00 31 996.5
20260504194306 78 329 5.0 13.0 0.00 0.00 0.00 30 996.7
20260504193616 78 18 4.0 12.0 0.00 0.00 0.00 32 996.5
20260504193353 78 174 5.0 11.0 0.00 0.00 0.00 31 996.7
20260504192919 78 345 5.0 11.0 0.00 0.00 0.00 30 996.9
20260504192440 78 298 5.0 11.0 0.00 0.00 0.00 32 996.7
20260504191953 78 309 4.0 11.0 0.00 0.00 0.00 31 996.8
20260504191724 78 282 5.0 11.0 0.00 0.00 0.00 31 996.8
20260504191246 78 319 5.0 11.0 0.00 0.00 0.00 31 996.8
20260504190341 78 21 5.0 12.0 0.00 0.00 0.00 32 996.8